To NAV CANADA Home Page Login to a new session Search on AWWS site Feedback and Comments Disclaimer Vers la page française équivalente Tips FAQ What's new on the site To the Forecasts and Observations / NOTAM section To "File a Flight Plan" website Publications and other links Update of the User's profile FIC Telephone Numbers My Weather Data Folder Route Weather Data Regional Weather Data Local Weather Data To the Forecasts and Observations / NOTAM section
Request Generated 05/25/2016 at 18:43:22 UTC . Weather information available at that time is displayed.

METAR/TAF

CHESTERFIELD INLET/NU    

METAR CYCS 251800Z 32007KT 15SM OVC016 M02/M06 A3019 RMK SC8 SLP227=
METAR CYCS 251700Z 32010KT 15SM OVC015 M03/M06 A3018 RMK SC8 SLP224=
METAR CYCS 251600Z 30008KT 15SM OVC015 M03/M06 A3017 RMK SC8 SLP221=

CYCS - No TAF is issued for this station

Your time UTC time
Weather data provided by Environment Canada and NAV CANADA